Simultaneous Nadir Overpasses (SNOs) Predictions

Prediction of SNOs between LANDSAT-8 and NOAA-19 Satellite Orbit:

Table of predicted SNOs for the next 14.0 days since TLE Epoch: 9/28/2024
Index Date (LANDSAT-8) Time (LANDSAT-8) Lat,Lon (LANDSAT-8) SZA (LANDSAT-8 ) Date (NOAA-19) Time (NOAA-19) Lat,Lon (NOAA-19) SZA (NOAA-19 ) Distance(km) Time Diff (sec)
1 09/29/2024 01:14:38 80.44,-167.00 84.58 09/29/2024 01:14:14 80.43,-167.11 84.56 2.20 24
2 09/29/2024 02:04:03 -80.50, 1.24 95.31 09/29/2024 02:05:15 -80.50, 1.25 95.28 0.44 72
3 10/01/2024 07:37:46 80.41, 96.87 85.41 10/01/2024 07:36:54 80.42, 96.96 85.41 1.97 52
4 10/01/2024 08:27:11 -80.47, -94.89 94.47 10/01/2024 08:27:56 -80.46, -95.03 94.47 2.86 45
5 10/03/2024 14:50:17 -80.44, 169.07 93.63 10/03/2024 14:50:35 -80.44, 168.91 93.64 2.93 18
6 10/05/2024 21:13:23 -80.42, 73.09 92.78 10/05/2024 21:13:14 -80.42, 73.09 92.79 0.13 9
7 10/08/2024 03:36:28 -80.41, -22.81 91.93 10/08/2024 03:35:53 -80.40, -22.86 91.95 1.13 35
8 10/08/2024 04:25:53 80.43, 145.09 88.14 10/08/2024 04:26:45 80.44, 144.98 88.15 2.16 52
9 10/10/2024 09:59:33 -80.37,-118.96 91.13 10/10/2024 09:58:32 -80.37,-118.91 91.14 1.00 61



Historial Predications of SNOs between LANDSAT-8 and NOAA-19
